Voltar ao catálogo

GEESAT 4-03

AtivoComunicaçõesLEO
NORAD 65121·PAYLOAD·🇨🇳 China

Lançado Aug 8, 2025 de Yellow Sea Launch Area

Loading…

Próximas Passagens (próximas 24 horas)

TLE

AtualizadoSource: Space-Track

Época: Sep 14, 2026, 14:26 UTC

1 65121U 25170C   26257.60189362  .00001206  00000-0  16928-3 0  9995
2 65121  49.9920 119.3608 0020399  44.9827 315.2760 14.84265173 59712

Acompanhe GEESAT 4-03 em tempo real com AllMySat

Download on the App Store